Location: Unspecified
(0.0000°N, 0.0000°E)
Time: 22:56:48
(UTC+00:00)

Altair - Visible Passes

Search period start: 23 January 2017 00:00
Search period end: 02 February 2017 00:00
Orbit: 1501 x 1683 km, 47.2° (Epoch: 22 January)

Date Brightness Start Highest point End Pass type
(mag) Time Alt. Az. Time Alt. Az. Time Alt. Az.
23 Jan 8.0 03:53:57 37° N 03:57:21 51° NE 04:06:13 10° ESE visible
23 Jan 9.6 18:46:08 10° W 18:51:37 16° NW 18:57:10 10° N visible
24 Jan 8.0 03:30:44 42° NNE 03:32:12 45° NE 03:40:53 10° ESE visible
24 Jan 8.1 05:28:48 12° WNW 05:36:40 37° SW 05:44:58 10° SSE visible
25 Jan 8.2 03:07:30 40° NE 03:07:30 40° NE 03:15:32 10° ESE visible
25 Jan 7.9 05:05:34 20° WNW 05:11:32 42° SW 05:20:04 10° SSE visible
26 Jan 8.6 02:44:14 32° ENE 02:44:14 32° ENE 02:50:07 10° ESE visible
26 Jan 7.8 04:42:18 31° WNW 04:46:23 48° SW 04:55:09 10° SSE visible
27 Jan 9.1 02:20:57 23° E 02:20:57 23° E 02:24:40 10° ESE visible
27 Jan 7.6 04:19:00 45° W 04:21:15 54° SW 04:30:11 10° SSE visible
28 Jan 9.5 01:57:37 15° E 01:57:37 15° E 01:59:09 10° ESE visible
28 Jan 7.4 03:55:40 60° WSW 03:56:07 60° SW 04:05:12 10° SSE visible
29 Jan 7.6 03:32:18 62° S 03:32:18 62° S 03:40:11 10° SSE visible
29 Jan 9.1 05:33:58 10° WSW 05:36:01 11° SW 05:38:04 10° SSW visible
30 Jan 8.0 03:08:52 48° SSE 03:08:52 48° SSE 03:15:08 10° SE visible
30 Jan 9.0 05:06:56 10° WSW 05:10:45 13° SW 05:14:33 10° SSW visible
31 Jan 8.5 02:45:24 35° SE 02:45:24 35° SE 02:50:03 10° SE visible
31 Jan 8.9 04:43:28 14° WSW 04:45:30 15° SW 04:50:25 10° SSW visible
01 Feb 9.0 02:21:54 24° SE 02:21:54 24° SE 02:24:56 10° SE visible
01 Feb 8.8 04:19:56 18° SW 04:20:17 18° SW 04:26:02 10° S visible
